K8JWL-13 Weather Reports


Display with metric or nautical units.
time (UTC)temp
F
wind
direction
speed
MPH
gust
MPH
rain 1hr
in
rain 24hr
in
rain mn
in
humidity
%
barometer
mb
20260905045353 73 31 0.0 0.0 185.49 0.00 0.00 86 1015.0
20260905044926 73 31 0.0 0.0 185.49 0.00 0.00 86 1015.0
20260905044854 73 31 0.0 0.0 185.49 0.00 0.00 86 1015.0
20260905044151 73 31 0.0 0.0 185.49 0.00 0.00 86 1015.0
20260905043853 73 31 0.0 0.0 185.49 0.00 0.00 86 1015.0
20260905043354 73 31 0.0 0.0 185.49 0.00 0.00 86 1015.1
20260905042854 74 31 0.0 0.0 185.49 0.00 0.10 86 1015.2
20260905042353 74 31 0.0 0.0 185.49 0.00 0.10 85 1015.3
20260905041353 74 31 0.0 0.0 185.49 0.00 0.10 85 1015.4
20260905040928 74 31 0.0 0.0 185.49 0.00 0.10 85 1015.4
20260905040853 74 31 0.0 0.0 185.49 0.00 0.10 85 1015.4
20260905035853 74 31 0.0 0.0 185.49 0.00 0.10 85 1015.4
20260905035353 74 31 0.0 0.0 185.49 0.00 0.10 85 1015.5
20260905034854 74 31 0.0 0.0 185.49 0.00 0.10 85 1015.5
20260905034448 74 31 0.0 0.0 185.49 0.00 0.10 85 1015.5
20260905033853 74 31 0.0 0.0 185.49 0.00 0.10 85 1015.5
20260905032853 74 31 0.0 0.0 185.49 0.00 0.10 85 1015.4
20260905031507 74 31 0.0 0.0 185.49 0.00 0.10 85 1015.4
20260905031353 74 31 0.0 0.0 185.49 0.00 0.10 85 1015.4
20260905030149 75 31 0.0 0.0 185.49 0.00 0.10 84 1015.5
20260905025853 75 31 0.0 0.0 185.49 0.00 0.10 84 1015.5
20260905025353 75 31 0.0 0.0 185.49 0.00 0.10 84 1015.5
20260905023854 75 31 0.0 0.0 185.49 0.00 0.10 84 1015.5
20260905022902 75 31 0.0 0.0 185.49 0.00 0.10 84 1015.7
20260905022853 75 31 0.0 0.0 185.49 0.00 0.10 84 1015.7
20260905022355 75 31 0.0 0.0 185.49 0.00 0.10 84 1015.7
20260905022159 75 31 0.0 0.0 185.49 0.00 0.10 84 1015.5
20260905021853 75 31 0.0 0.0 185.49 0.00 0.10 84 1015.5
20260905021502 75 31 0.0 0.0 185.49 0.00 0.10 83 1015.5
20260905021353 75 31 0.0 0.0 185.49 0.00 0.10 83 1015.5
20260905021002 76 31 0.0 0.0 185.49 0.00 0.10 83 1015.5
20260905020853 76 31 0.0 0.0 185.49 0.00 0.10 83 1015.5
20260905015853 76 31 0.0 0.0 185.49 0.00 0.10 83 1015.5
20260905014854 76 31 0.0 0.0 185.49 0.00 0.10 82 1015.4
20260905013353 76 31 0.0 0.0 185.49 0.00 0.10 82 1015.4
20260905013259 77 31 0.0 0.0 185.49 0.00 0.10 82 1015.3
20260905012853 77 31 0.0 0.0 185.49 0.00 0.10 82 1015.3
20260905012212 78 31 0.0 0.0 185.49 0.00 0.10 79 1015.1
20260905011353 77 31 0.0 0.0 185.49 0.00 0.10 81 1015.3
20260905010853 77 31 0.0 0.0 185.49 0.00 0.10 81 1015.3
20260905005853 78 31 0.0 0.0 185.49 0.00 0.10 80 1015.2
20260905005353 78 31 0.0 0.0 185.49 0.00 0.10 79 1015.1
20260905004854 78 31 0.0 0.0 185.49 0.00 0.10 79 1015.1
20260905004353 78 31 0.0 0.0 185.49 0.00 0.10 80 1015.0
20260905003853 78 31 0.0 0.0 185.49 0.00 0.10 80 1015.0
20260905002939 79 31 0.0 0.0 185.49 0.00 0.10 79 1015.1
20260905002854 79 31 0.0 0.0 185.49 0.00 0.10 79 1015.1
20260905001853 79 31 0.0 0.0 185.49 0.00 0.10 78 1015.1
20260905001353 80 31 0.0 0.0 185.49 0.00 0.10 77 1015.0
20260905000853 80 31 0.0 0.0 185.49 0.00 0.10 77 1015.0
20260905000402 80 31 0.0 0.0 185.49 0.00 0.10 76 1015.0
20260904235854 80 31 0.0 0.0 185.49 0.00 0.10 76 1014.9
20260904235353 80 31 0.0 0.0 185.49 0.00 0.10 76 1014.9
20260904234853 81 31 0.0 0.0 185.49 0.00 0.10 75 1014.8
20260904234353 81 31 0.0 0.0 185.49 0.00 0.10 74 1014.8
20260904233355 82 31 0.0 0.0 185.49 0.00 0.10 73 1014.9
20260904231853 82 31 0.0 0.0 185.49 0.00 0.10 71 1014.9
20260904225855 83 31 0.0 0.0 185.49 0.00 0.10 69 1014.9
20260904224354 82 31 0.0 0.0 185.49 0.00 0.10 70 1015.0
20260904222927 82 31 0.0 0.0 185.49 0.00 0.10 71 1014.7
20260904222855 82 31 0.0 0.0 185.49 0.00 0.10 71 1014.7
20260904222356 82 31 0.0 0.0 185.49 0.00 0.10 70 1014.6
20260904220855 82 31 0.0 0.0 185.49 0.00 0.10 68 1014.7
20260904220355 82 31 0.0 0.0 185.49 0.00 0.10 69 1014.8
20260904215856 82 31 0.0 0.0 185.49 0.00 0.10 69 1014.6
20260904214856 81 31 0.0 0.0 185.49 0.00 0.10 71 1014.2
20260904214355 81 31 0.0 0.0 185.49 0.00 0.10 72 1014.1
20260904213854 80 31 0.0 0.0 185.49 0.00 0.10 74 1014.1
20260904213353 80 31 0.0 0.0 185.49 0.00 0.10 74 1013.8
20260904212354 80 31 0.0 0.0 185.49 0.00 0.10 74 1013.6
20260904211853 80 31 0.0 0.0 185.49 0.00 0.10 74 1013.4
20260904211353 80 31 0.0 0.0 185.49 0.00 0.10 73 1013.3
20260904210854 80 31 0.0 0.0 185.49 0.00 0.10 73 1013.2
20260904210355 80 31 0.0 0.0 185.49 0.00 0.10 73 1012.7
20260904205353 80 31 0.0 0.0 185.49 0.00 0.10 72 1012.8
20260904204853 80 31 0.0 0.0 185.49 0.00 0.10 71 1013.0
20260904203853 81 31 0.0 0.0 185.49 0.00 0.10 71 1013.8
20260904202856 82 31 0.0 0.0 185.49 0.00 0.10 70 1014.8
20260904202353 82 31 0.0 0.0 185.49 0.00 0.10 69 1015.1
20260904201853 83 31 0.0 0.0 185.49 0.00 0.10 68 1015.4
20260904201353 83 31 0.0 0.0 185.49 0.00 0.10 66 1015.7
20260904200353 83 31 0.0 0.0 185.49 0.00 0.10 65 1015.9
20260904195354 84 31 0.0 0.0 185.49 0.00 0.10 64 1016.0
20260904194853 84 31 0.0 0.0 185.49 0.00 0.10 63 1016.2
20260904194353 84 31 0.0 0.0 185.49 0.00 0.10 63 1016.2
20260904193853 85 31 0.0 0.0 185.49 0.00 0.10 61 1016.1
20260904193353 85 31 0.0 0.0 185.49 0.00 0.10 62 1016.1
20260904192853 85 31 0.0 0.0 185.49 0.00 0.10 64 1016.2
20260904192353 84 31 0.0 0.0 185.49 0.00 0.10 66 1016.2
20260904191853 84 31 0.0 0.0 185.49 0.00 0.10 65 1016.3
20260904191426 83 31 0.0 0.0 185.49 0.00 0.10 65 1016.5
20260904191353 83 31 0.0 0.0 185.49 0.00 0.10 65 1016.5
20260904190853 83 31 0.0 0.0 185.49 0.00 0.10 66 1016.7
20260904190353 83 31 0.0 0.0 185.49 0.00 0.10 68 1016.8
20260904185852 83 31 0.0 0.0 185.49 0.00 0.10 67 1016.9
20260904185353 83 31 0.0 0.0 185.49 0.00 0.10 67 1017.0
20260904184853 82 31 0.0 0.0 185.49 0.00 0.10 69 1017.3
20260904184353 82 31 0.0 0.0 185.49 0.00 0.10 68 1017.3
20260904183353 81 31 0.0 0.0 185.49 0.00 0.10 76 1017.1
20260904182853 80 31 0.0 0.0 185.49 0.00 0.10 74 1017.2
20260904182352 80 31 0.0 0.0 185.49 0.00 0.10 79 1017.3
20260904181853 79 31 0.0 0.0 185.49 0.00 0.10 79 1017.3
20260904181352 79 31 0.0 0.0 185.49 0.00 0.10 81 1017.4
20260904180852 78 31 0.0 0.0 185.49 0.00 0.10 83 1017.5
20260904180353 78 31 0.0 0.0 185.49 0.00 0.10 81 1017.5
20260904175352 78 31 0.0 0.0 185.49 0.00 0.10 82 1017.6
20260904174853 78 59 4.0 0.0 185.49 0.00 0.10 83 1017.5
20260904174353 79 287 0.0 0.0 185.49 0.00 0.10 84 1017.7
20260904173852 79 287 0.0 0.0 185.49 0.00 0.10 83 1017.7
20260904173353 79 287 1.0 0.0 185.47 0.00 0.08 83 1017.6
20260904172852 79 359 0.0 0.0 185.45 0.00 0.06 83 1017.5
20260904172352 79 4 0.0 0.0 185.45 0.00 0.06 82 1017.3
20260904171854 79 4 0.0 0.0 185.44 0.00 0.05 81 1017.2
20260904171352 79 4 0.0 0.0 185.43 0.00 0.04 81 1016.9
20260904170852 79 4 0.0 0.0 185.42 0.00 0.03 80 1016.9
20260904170353 80 4 0.0 0.0 185.42 0.00 0.03 80 1016.9
20260904165854 80 4 0.0 0.0 185.42 0.00 0.03 79 1017.0
20260904165352 80 4 0.0 0.0 185.41 0.00 0.02 78 1016.9
20260904165013 81 4 0.0 0.0 185.41 0.00 0.02 78 1017.4
20260904164853 81 4 0.0 0.0 185.41 0.00 0.02 78 1017.4
20260904164352 81 4 0.0 0.0 185.41 0.00 0.02 77 1017.8
20260904163853 81 4 0.0 0.0 185.41 0.00 0.02 77 1017.8
20260904163012 82 4 0.0 0.0 185.41 0.00 0.02 76 1017.7
20260904162852 82 4 0.0 0.0 185.41 0.00 0.02 76 1017.7
20260904162517 82 4 0.0 0.0 185.41 0.00 0.02 75 1017.8
20260904162352 82 4 0.0 0.0 185.41 0.00 0.02 75 1017.8
20260904161853 82 4 0.0 0.0 185.41 0.00 0.02 75 1017.7
20260904161353 82 4 0.0 0.0 185.41 0.00 0.02 74 1017.8
20260904160353 81 4 0.0 0.0 185.41 0.00 0.02 77 1017.5
20260904155852 81 4 0.0 0.0 185.41 0.00 0.02 78 1017.2
20260904155354 81 4 0.0 0.0 185.41 0.00 0.02 78 1017.3
20260904154352 80 4 0.0 0.0 185.41 0.00 0.02 80 1017.3
20260904153852 80 4 0.0 0.0 185.41 0.00 0.02 80 1017.4
20260904153625 80 4 0.0 0.0 185.41 0.00 0.02 80 1017.5
20260904152852 80 4 0.0 0.0 185.41 0.00 0.02 80 1017.5
20260904152352 80 4 0.0 0.0 185.41 0.00 0.02 80 1017.3
20260904151853 80 4 0.0 0.0 185.41 0.00 0.02 80 1017.3
20260904151149 80 4 0.0 0.0 185.41 0.00 0.02 80 1017.2
20260904150852 80 4 0.0 0.0 185.41 0.00 0.02 80 1017.2
20260904150354 80 4 0.0 0.0 185.41 0.00 0.02 80 1017.1
20260904145352 80 4 0.0 0.0 185.41 0.00 0.02 80 1017.1
20260904145156 79 4 0.0 0.0 185.41 0.00 0.02 81 1016.8
20260904144853 79 4 0.0 0.0 185.41 0.00 0.02 81 1016.9
20260904144352 79 4 0.0 0.0 185.41 0.00 0.02 81 1016.8
20260904143854 79 4 0.0 0.0 185.41 0.00 0.02 83 1016.8
20260904143353 79 4 0.0 0.0 185.41 0.00 0.02 82 1016.7
20260904142856 79 4 0.0 0.0 185.41 0.00 0.02 81 1016.4
20260904142352 79 4 0.0 0.0 185.41 0.00 0.02 81 1016.5
20260904141853 78 4 0.0 0.0 185.41 0.00 0.02 82 1016.7
20260904141352 79 4 0.0 0.0 185.41 0.00 0.02 82 1016.8
20260904140852 78 4 0.0 0.0 185.41 0.00 0.02 82 1016.9
20260904140353 78 4 0.0 0.0 185.41 0.00 0.02 82 1016.9
20260904135855 78 4 0.0 0.0 185.40 0.00 0.01 82 1016.7
20260904135841 78 4 0.0 0.0 185.39 0.00 0.00 84 1016.3
20260904135353 78 4 0.0 0.0 185.39 0.00 0.00 82 1016.7
20260904134854 78 4 0.0 0.0 185.39 0.00 0.00 83 1016.6
20260904134352 78 4 0.0 0.0 185.39 0.00 0.00 84 1016.5
20260904133852 78 4 0.0 0.0 185.39 0.00 0.00 84 1016.3
20260904132852 77 4 0.0 0.0 185.39 0.00 0.00 85 1016.3
20260904132352 77 4 3.0 0.0 185.39 0.00 0.00 85 1016.5
20260904131353 76 20 2.0 0.0 185.39 0.00 0.00 86 1016.3
20260904130853 76 143 1.0 0.0 185.39 0.00 0.00 86 1016.3
20260904130352 75 160 0.0 0.0 185.39 0.00 0.00 86 1016.3
20260904130013 75 160 0.0 0.0 185.39 0.00 0.00 86 1016.4
20260904125852 75 160 0.0 0.0 185.39 0.00 0.00 86 1016.4
20260904125354 75 201 1.0 0.0 185.39 0.00 0.00 86 1016.5
20260904124358 75 193 0.0 0.0 185.39 0.00 0.00 87 1016.7
20260904123352 74 65 0.0 0.0 185.39 0.00 0.00 86 1016.6
20260904123012 74 277 0.0 0.0 185.39 0.00 0.00 86 1016.7
20260904122852 74 277 0.0 0.0 185.39 0.00 0.00 86 1016.7
20260904122352 74 277 0.0 0.0 185.39 0.00 0.00 86 1016.7
20260904121852 73 277 0.0 0.0 185.39 0.00 0.00 86 1016.7
20260904121352 73 277 0.0 0.0 185.39 0.00 0.00 86 1016.7
20260904120852 73 277 0.0 0.0 185.39 0.00 0.00 86 1016.7
20260904115857 73 277 0.0 0.0 185.39 0.00 0.00 86 1016.6
20260904114852 73 277 0.0 0.0 185.39 0.00 0.00 85 1016.7
20260904114352 72 277 0.0 0.0 185.39 0.00 0.00 85 1016.5
20260904113352 72 277 0.0 0.0 185.39 0.00 0.00 85 1016.2
20260904113015 72 277 0.0 0.0 185.39 0.00 0.00 85 1016.1
20260904112852 72 277 0.0 0.0 185.39 0.00 0.00 85 1016.1
20260904112513 72 277 0.0 0.0 185.39 0.00 0.00 85 1016.0
20260904112352 72 277 0.0 0.0 185.39 0.00 0.00 85 1016.0
20260904111352 72 277 0.0 0.0 185.39 0.00 0.00 85 1015.8
20260904111014 72 277 0.0 0.0 185.39 0.00 0.00 85 1015.8
20260904110852 72 277 0.0 0.0 185.39 0.00 0.00 85 1015.8
20260904110015 72 277 0.0 0.0 185.39 0.00 0.00 85 1015.7
20260904105852 72 277 0.0 0.0 185.39 0.00 0.00 85 1015.7
20260904103852 73 277 0.0 0.0 185.39 0.00 0.00 85 1015.7
20260904102352 73 277 0.0 0.0 185.39 0.00 0.00 85 1015.7
20260904101852 73 277 0.0 0.0 185.39 0.00 0.00 84 1015.7
20260904100853 73 277 0.0 0.0 185.39 0.00 0.00 84 1015.4
20260904100355 73 277 0.0 0.0 185.39 0.00 0.00 84 1015.4
20260904095852 73 277 0.0 0.0 185.39 0.00 0.00 84 1015.3
20260904095352 73 277 0.0 0.0 185.39 0.00 0.00 84 1015.4
20260904094852 73 277 0.0 0.0 185.39 0.00 0.00 84 1015.4
20260904094509 73 277 0.0 0.0 185.39 0.00 0.00 84 1015.4
20260904094352 73 277 0.0 0.0 185.39 0.00 0.00 84 1015.4
20260904093852 73 277 0.0 0.0 185.39 0.00 0.00 84 1015.4
20260904093016 73 277 0.0 0.0 185.39 0.00 0.00 84 1015.4
20260904092852 73 277 0.0 0.0 185.39 0.00 0.00 84 1015.4
20260904091852 74 277 0.0 0.0 185.39 0.00 0.00 84 1015.2
20260904090852 74 277 0.0 0.0 185.39 0.00 0.00 84 1015.1
20260904090013 74 277 0.0 0.0 185.39 0.00 0.00 84 1015.1
20260904085852 74 277 0.0 0.0 185.39 0.00 0.00 84 1015.1
20260904084852 74 277 0.0 0.0 185.39 0.00 0.00 84 1015.1
20260904083852 74 277 0.0 0.0 185.39 0.00 0.00 83 1015.0
20260904083352 74 277 0.0 0.0 185.39 0.00 0.00 83 1015.0
20260904083012 74 277 0.0 0.0 185.39 0.00 0.00 83 1015.1
20260904082852 74 277 0.0 0.0 185.39 0.00 0.00 83 1015.1
20260904082352 74 277 0.0 0.0 185.39 0.00 0.00 83 1015.1
20260904081852 74 277 0.0 0.0 185.39 0.00 0.00 83 1015.2
20260904081509 74 277 0.0 0.0 185.39 0.00 0.00 83 1015.2
20260904081352 74 277 0.0 0.0 185.39 0.00 0.00 83 1015.2
20260904080852 74 277 0.0 0.0 185.39 0.00 0.00 83 1015.3
20260904080352 74 277 0.0 0.0 185.39 0.00 0.00 83 1015.4
20260904075352 74 277 0.0 0.0 185.39 0.00 0.00 83 1015.4
20260904074852 74 277 0.0 0.0 185.39 0.00 0.00 83 1015.4
20260904074511 74 277 0.0 0.0 185.39 0.00 0.00 83 1015.4
20260904074352 74 277 0.0 0.0 185.39 0.00 0.00 83 1015.4
20260904073852 74 277 0.0 0.0 185.39 0.00 0.00 83 1015.4
20260904072352 75 277 0.0 0.0 185.39 0.00 0.00 82 1015.8
20260904071852 75 277 0.0 0.0 185.39 0.00 0.00 82 1015.9
20260904070852 75 277 0.0 0.0 185.39 0.00 0.00 82 1015.8
20260904070352 75 277 0.0 0.0 185.39 0.00 0.00 82 1015.8
20260904070049 75 277 0.0 0.0 185.39 0.00 0.00 82 1015.8
20260904070014 75 277 0.0 0.0 185.39 0.00 0.00 82 1015.8
20260904065852 75 277 0.0 0.0 185.39 0.00 0.00 82 1015.8
20260904065352 75 277 0.0 0.0 185.39 0.00 0.00 82 1015.9
20260904064352 75 277 0.0 0.0 185.39 0.00 0.00 82 1015.9
20260904063852 75 277 0.0 0.0 185.39 0.00 0.00 82 1015.9
20260904062851 75 277 0.0 0.0 185.39 0.00 0.00 82 1015.9
20260904062352 75 277 0.0 0.0 185.39 0.00 0.00 82 1015.9
20260904061852 75 277 0.0 0.0 185.39 0.00 0.00 82 1015.9
20260904061352 75 277 0.0 0.0 185.39 0.00 0.00 82 1015.9
20260904060851 75 277 0.0 0.0 185.39 0.00 0.00 82 1016.0
20260904060352 75 277 0.0 0.0 185.39 0.00 0.00 81 1016.1
20260904055852 75 277 0.0 0.0 185.39 0.00 0.00 82 1016.1
20260904055352 75 277 0.0 0.0 185.39 0.00 0.00 82 1016.1
20260904054852 75 277 0.0 0.0 185.39 0.00 0.00 82 1016.1
20260904053851 75 277 0.0 0.0 185.39 0.00 0.00 81 1016.1
20260904052851 75 277 0.0 0.0 185.39 0.00 0.00 81 1016.2
20260904052354 75 277 0.0 0.0 185.39 0.00 0.00 81 1016.2
20260904051853 75 277 0.0 0.0 185.39 0.00 0.00 81 1016.2
20260904051352 75 277 0.0 0.0 185.39 0.00 0.00 81 1016.2
20260904050852 75 277 0.0 0.0 185.39 0.00 0.00 81 1016.3
20260904050352 75 277 0.0 0.0 185.39 0.00 0.00 81 1016.3
20260904045851 75 277 0.0 0.0 185.39 0.00 0.00 81 1016.2